{"data":{"norad_id":54205,"epoch":"2026-09-20T06:35:24.493920Z","epoch_age_seconds":108691,"freshness":"FRESH","line1":"1 54205U 22141BA  26263.27458905  .00000737  00000+0  35497-4 0  9993","line2":"2 54205  53.1602 190.8198 0001384  92.8046 267.3114 15.31707627215490","mean_motion":15.31707627,"eccentricity":0.0001384,"inclination_deg":53.1602,"raan_deg":190.8198,"arg_perigee_deg":92.8046,"mean_anomaly_deg":267.3114,"bstar":3.5497e-5,"rev_number":21549,"period_min":94.012719830898,"perigee_km":469.76937820033,"apogee_km":471.6651410594,"semimajor_km":6848.8542596299,"source":"CELESTRAK","updated_at":"2026-09-21T09:00:33.117972Z"}}